Datum;"Wasserstand in cm";"Stationsnummer: 5819500";"Stationsname: Birkenwerder";"Gew?sser: Briese";"Fehlwerte: -777"
"20.03.2024 00:00";90
"20.03.2024 00:15";90
"20.03.2024 00:30";90
"20.03.2024 00:45";90
"20.03.2024 01:00";90
"20.03.2024 01:15";90
"20.03.2024 01:30";90
"20.03.2024 01:45";90
"20.03.2024 02:00";90
"20.03.2024 02:15";90
"20.03.2024 02:30";90
"20.03.2024 02:45";90
"20.03.2024 03:00";90
"20.03.2024 03:15";90
"20.03.2024 03:30";90
"20.03.2024 03:45";90
"20.03.2024 04:00";90
"20.03.2024 04:15";90
"20.03.2024 04:30";90
"20.03.2024 04:45";90
"20.03.2024 05:00";90
"20.03.2024 05:15";90
"20.03.2024 05:30";90
"20.03.2024 05:45";90
"20.03.2024 06:00";90
"20.03.2024 06:15";90
"20.03.2024 06:30";90
"20.03.2024 06:45";90
"20.03.2024 07:00";90
"20.03.2024 07:15";90
"20.03.2024 07:30";90
"20.03.2024 07:45";90
"20.03.2024 08:00";90
"20.03.2024 08:15";91
"20.03.2024 08:30";90
"20.03.2024 08:45";90
"20.03.2024 09:00";90
"20.03.2024 09:15";90
"20.03.2024 09:30";90
"20.03.2024 09:45";91
"20.03.2024 10:00";90
"20.03.2024 10:15";90
"20.03.2024 10:30";90
"20.03.2024 10:45";90
"20.03.2024 11:00";90
"20.03.2024 11:15";90
"20.03.2024 11:30";90
"20.03.2024 11:45";90
"20.03.2024 12:00";90
"20.03.2024 12:15";90
"20.03.2024 12:30";90
"20.03.2024 12:45";91
"20.03.2024 13:00";90
"20.03.2024 13:15";90
"20.03.2024 13:30";91
"20.03.2024 13:45";91
"20.03.2024 14:00";90
"20.03.2024 14:15";91
"20.03.2024 14:30";90
"20.03.2024 14:45";90
"20.03.2024 15:00";90
"20.03.2024 15:15";90
"20.03.2024 15:30";90
"20.03.2024 15:45";90
"20.03.2024 16:00";90
"20.03.2024 16:15";90
"20.03.2024 16:30";91
"20.03.2024 16:45";90
"20.03.2024 17:00";90
"20.03.2024 17:15";91
"20.03.2024 17:30";91
"20.03.2024 17:45";90
"20.03.2024 18:00";91
"20.03.2024 18:15";90
"20.03.2024 18:30";91
"20.03.2024 18:45";91
"20.03.2024 19:00";91
"20.03.2024 19:15";91
"20.03.2024 19:30";91
"20.03.2024 19:45";91
"20.03.2024 20:00";91
"20.03.2024 20:15";91
"20.03.2024 20:30";91
"20.03.2024 20:45";90
"20.03.2024 21:00";91
"20.03.2024 21:15";91
"20.03.2024 21:30";91
"20.03.2024 21:45";91
"20.03.2024 22:00";91
"20.03.2024 22:15";91
"20.03.2024 22:30";91
"20.03.2024 22:45";91
"20.03.2024 23:00";91
"20.03.2024 23:15";91
"20.03.2024 23:30";91
"20.03.2024 23:45";91
"21.03.2024 00:00";91
"21.03.2024 00:15";91
"21.03.2024 00:30";91
"21.03.2024 00:45";91
"21.03.2024 01:00";91
"21.03.2024 01:15";91
"21.03.2024 01:30";91
"21.03.2024 01:45";91
"21.03.2024 02:00";91
"21.03.2024 02:15";91
"21.03.2024 02:30";91
"21.03.2024 02:45";91
"21.03.2024 03:00";91
"21.03.2024 03:15";91
"21.03.2024 03:30";91
"21.03.2024 03:45";91
"21.03.2024 04:00";91
"21.03.2024 04:15";91
"21.03.2024 04:30";91
"21.03.2024 04:45";91
"21.03.2024 05:00";91
"21.03.2024 05:15";91
"21.03.2024 05:30";91
"21.03.2024 05:45";91
"21.03.2024 06:00";91
"21.03.2024 06:15";91
"21.03.2024 06:30";91
"21.03.2024 06:45";91
"21.03.2024 07:00";91
"21.03.2024 07:15";91
"21.03.2024 07:30";91
"21.03.2024 07:45";92
"21.03.2024 08:00";92
"21.03.2024 08:15";92
"21.03.2024 08:30";92
"21.03.2024 08:45";92
"21.03.2024 09:00";93
"21.03.2024 09:15";93
"21.03.2024 09:30";93
"21.03.2024 09:45";93
"21.03.2024 10:00";93
"21.03.2024 10:15";93
"21.03.2024 10:30";93
"21.03.2024 10:45";93
"21.03.2024 11:00";93
"21.03.2024 11:15";93
"21.03.2024 11:30";93
"21.03.2024 11:45";93
"21.03.2024 12:00";93
"21.03.2024 12:15";93
"21.03.2024 12:30";93
"21.03.2024 12:45";93
"21.03.2024 13:00";93
"21.03.2024 13:15";93
"21.03.2024 13:30";93
"21.03.2024 13:45";93
"21.03.2024 14:00";93
"21.03.2024 14:15";93
"21.03.2024 14:30";93
"21.03.2024 14:45";93
"21.03.2024 15:00";93
"21.03.2024 15:15";93
"21.03.2024 15:30";93
"21.03.2024 15:45";93
"21.03.2024 16:00";93
"21.03.2024 16:15";93
"21.03.2024 16:30";93
"21.03.2024 16:45";93
"21.03.2024 17:00";93
"21.03.2024 17:15";93
"21.03.2024 17:30";93
"21.03.2024 17:45";93
"21.03.2024 18:00";93
"21.03.2024 18:15";93
"21.03.2024 18:30";93
"21.03.2024 18:45";93
"21.03.2024 19:00";93
"21.03.2024 19:15";93
"21.03.2024 19:30";94
"21.03.2024 19:45";94
"21.03.2024 20:00";94
"21.03.2024 20:15";94
"21.03.2024 20:30";94
"21.03.2024 20:45";94
"21.03.2024 21:00";94
"21.03.2024 21:15";94
"21.03.2024 21:30";94
"21.03.2024 21:45";94
"21.03.2024 22:00";94
"21.03.2024 22:15";94
"21.03.2024 22:30";94
"21.03.2024 22:45";94
"21.03.2024 23:00";94
"21.03.2024 23:15";94
"21.03.2024 23:30";94
"21.03.2024 23:45";94
"22.03.2024 00:00";94
"22.03.2024 00:15";94
"22.03.2024 00:30";94
"22.03.2024 00:45";94
"22.03.2024 01:00";94
"22.03.2024 01:15";94
"22.03.2024 01:30";94
"22.03.2024 01:45";94
"22.03.2024 02:00";94
"22.03.2024 02:15";94
"22.03.2024 02:30";94
"22.03.2024 02:45";94
"22.03.2024 03:00";94
"22.03.2024 03:15";94
"22.03.2024 03:30";94
"22.03.2024 03:45";94
"22.03.2024 04:00";95
"22.03.2024 04:15";95
"22.03.2024 04:30";95
"22.03.2024 04:45";94
"22.03.2024 05:00";95
"22.03.2024 05:15";95
"22.03.2024 05:30";95
"22.03.2024 05:45";95
"22.03.2024 06:00";95
"22.03.2024 06:15";95
"22.03.2024 06:30";95
"22.03.2024 06:45";95
"22.03.2024 07:00";95
"22.03.2024 07:15";95
"22.03.2024 07:30";95
"22.03.2024 07:45";95
"22.03.2024 08:00";95
"22.03.2024 08:15";95
"22.03.2024 08:30";95
"22.03.2024 08:45";95
"22.03.2024 09:00";95
"22.03.2024 09:15";95
"22.03.2024 09:30";95
"22.03.2024 09:45";95
"22.03.2024 10:00";95
"22.03.2024 10:15";95
"22.03.2024 10:30";95
"22.03.2024 10:45";95
"22.03.2024 11:00";95
"22.03.2024 11:15";95
"22.03.2024 11:30";95
"22.03.2024 11:45";96
"22.03.2024 12:00";95
"22.03.2024 12:15";95
"22.03.2024 12:30";96
"22.03.2024 12:45";96
"22.03.2024 13:00";96
"22.03.2024 13:15";96
"22.03.2024 13:30";96
"22.03.2024 13:45";96
"22.03.2024 14:00";96
"22.03.2024 14:15";96
"22.03.2024 14:30";96
"22.03.2024 14:45";96
"22.03.2024 15:00";96
"22.03.2024 15:15";96
"22.03.2024 15:30";96
"22.03.2024 15:45";96
"22.03.2024 16:00";96
"22.03.2024 16:15";96
"22.03.2024 16:30";96
"22.03.2024 16:45";96
"22.03.2024 17:00";96
"22.03.2024 17:15";96
"22.03.2024 17:30";96
"22.03.2024 17:45";96
"22.03.2024 18:00";96
"22.03.2024 18:15";96
"22.03.2024 18:30";96
"22.03.2024 18:45";96
"22.03.2024 19:00";96
"22.03.2024 19:15";96
"22.03.2024 19:30";96
"22.03.2024 19:45";96
"22.03.2024 20:00";96
"22.03.2024 20:15";96
"22.03.2024 20:30";96
"22.03.2024 20:45";96
"22.03.2024 21:00";96
"22.03.2024 21:15";96
"22.03.2024 21:30";96
"22.03.2024 21:45";96
"22.03.2024 22:00";96
"22.03.2024 22:15";97
"22.03.2024 22:30";97
"22.03.2024 22:45";97
"22.03.2024 23:00";97
"22.03.2024 23:15";97
"22.03.2024 23:30";97
"22.03.2024 23:45";97
"23.03.2024 00:00";97
"23.03.2024 00:15";97
"23.03.2024 00:30";97
"23.03.2024 00:45";97
"23.03.2024 01:00";97
"23.03.2024 01:15";97
"23.03.2024 01:30";97
"23.03.2024 01:45";97
"23.03.2024 02:00";97
"23.03.2024 02:15";97
"23.03.2024 02:30";97
"23.03.2024 02:45";97
"23.03.2024 03:00";97
"23.03.2024 03:15";97
"23.03.2024 03:30";97
"23.03.2024 03:45";97
"23.03.2024 04:00";97
"23.03.2024 04:15";97
"23.03.2024 04:30";97
"23.03.2024 04:45";97
"23.03.2024 05:00";97
"23.03.2024 05:15";97
"23.03.2024 05:30";97
"23.03.2024 05:45";97
"23.03.2024 06:00";97
"23.03.2024 06:15";97
"23.03.2024 06:30";97
"23.03.2024 06:45";97
"23.03.2024 07:00";97
"23.03.2024 07:15";97
"23.03.2024 07:30";98
"23.03.2024 07:45";97
"23.03.2024 08:00";98
"23.03.2024 08:15";98
"23.03.2024 08:30";97
"23.03.2024 08:45";98
"23.03.2024 09:00";98
"23.03.2024 09:15";98
"23.03.2024 09:30";98
"23.03.2024 09:45";98
"23.03.2024 10:00";98
"23.03.2024 10:15";98
"23.03.2024 10:30";98
"23.03.2024 10:45";98
"23.03.2024 11:00";98
"23.03.2024 11:15";98
"23.03.2024 11:30";98
"23.03.2024 11:45";98
"23.03.2024 12:00";98
"23.03.2024 12:15";98
"23.03.2024 12:30";98
"23.03.2024 12:45";98
"23.03.2024 13:00";98
"23.03.2024 13:15";98
"23.03.2024 13:30";98
"23.03.2024 13:45";98
"23.03.2024 14:00";98
"23.03.2024 14:15";98
"23.03.2024 14:30";98
"23.03.2024 14:45";98
"23.03.2024 15:00";98
"23.03.2024 15:15";98
"23.03.2024 15:30";98
"23.03.2024 15:45";98
"23.03.2024 16:00";98
"23.03.2024 16:15";98
"23.03.2024 16:30";98
"23.03.2024 16:45";98
"23.03.2024 17:00";98
"23.03.2024 17:15";98
"23.03.2024 17:30";95
"23.03.2024 17:45";94
"23.03.2024 18:00";94
"23.03.2024 18:15";93
"23.03.2024 18:30";93
"23.03.2024 18:45";93
"23.03.2024 19:00";93
"23.03.2024 19:15";93
"23.03.2024 19:30";93
"23.03.2024 19:45";93
"23.03.2024 20:00";93
"23.03.2024 20:15";93
"23.03.2024 20:30";93
"23.03.2024 20:45";93
"23.03.2024 21:00";93
"23.03.2024 21:15";93
"23.03.2024 21:30";93
"23.03.2024 21:45";93
"23.03.2024 22:00";93
"23.03.2024 22:15";94
"23.03.2024 22:30";93
"23.03.2024 22:45";94
"23.03.2024 23:00";93
"23.03.2024 23:15";93
"23.03.2024 23:30";94
"23.03.2024 23:45";94
"24.03.2024 00:00";93
"24.03.2024 00:15";93
"24.03.2024 00:30";93
"24.03.2024 00:45";94
"24.03.2024 01:00";93
"24.03.2024 01:15";94
"24.03.2024 01:30";94
"24.03.2024 01:45";94
"24.03.2024 02:00";93
"24.03.2024 02:15";94
"24.03.2024 02:30";94
"24.03.2024 02:45";94
"24.03.2024 03:00";94
"24.03.2024 03:15";94
"24.03.2024 03:30";94
"24.03.2024 03:45";94
"24.03.2024 04:00";94
"24.03.2024 04:15";94
"24.03.2024 04:30";94
"24.03.2024 04:45";94
"24.03.2024 05:00";93
"24.03.2024 05:15";94
"24.03.2024 05:30";94
"24.03.2024 05:45";94
"24.03.2024 06:00";94
"24.03.2024 06:15";94
"24.03.2024 06:30";94
"24.03.2024 06:45";94
"24.03.2024 07:00";94
"24.03.2024 07:15";94
"24.03.2024 07:30";94
"24.03.2024 07:45";94
"24.03.2024 08:00";94
"24.03.2024 08:15";94
"24.03.2024 08:30";94
"24.03.2024 08:45";94
"24.03.2024 09:00";94
"24.03.2024 09:15";94
"24.03.2024 09:30";94
"24.03.2024 09:45";94
"24.03.2024 10:00";94
"24.03.2024 10:15";94
"24.03.2024 10:30";94
"24.03.2024 10:45";94
"24.03.2024 11:00";94
"24.03.2024 11:15";94
"24.03.2024 11:30";94
"24.03.2024 11:45";94
"24.03.2024 12:00";94
"24.03.2024 12:15";94
"24.03.2024 12:30";94
"24.03.2024 12:45";94
"24.03.2024 13:00";94
"24.03.2024 13:15";94
"24.03.2024 13:30";94
"24.03.2024 13:45";94
"24.03.2024 14:00";94
"24.03.2024 14:15";94
"24.03.2024 14:30";94
"24.03.2024 14:45";94
"24.03.2024 15:00";94
"24.03.2024 15:15";94
"24.03.2024 15:30";94
"24.03.2024 15:45";94
"24.03.2024 16:00";94
"24.03.2024 16:15";94
"24.03.2024 16:30";94
"24.03.2024 16:45";94
"24.03.2024 17:00";94
"24.03.2024 17:15";94
"24.03.2024 17:30";94
"24.03.2024 17:45";94
"24.03.2024 18:00";94
"24.03.2024 18:15";94
"24.03.2024 18:30";94
"24.03.2024 18:45";94
"24.03.2024 19:00";94
"24.03.2024 19:15";95
"24.03.2024 19:30";94
"24.03.2024 19:45";94
"24.03.2024 20:00";94
"24.03.2024 20:15";94
"24.03.2024 20:30";94
"24.03.2024 20:45";94
"24.03.2024 21:00";94
"24.03.2024 21:15";94
"24.03.2024 21:30";94
"24.03.2024 21:45";94
"24.03.2024 22:00";94
"24.03.2024 22:15";94
"24.03.2024 22:30";94
"24.03.2024 22:45";94
"24.03.2024 23:00";94
"24.03.2024 23:15";94
"24.03.2024 23:30";94
"24.03.2024 23:45";94
"25.03.2024 00:00";94
"25.03.2024 00:15";94
"25.03.2024 00:30";94
"25.03.2024 00:45";94
"25.03.2024 01:00";94
"25.03.2024 01:15";94
"25.03.2024 01:30";95
"25.03.2024 01:45";94
"25.03.2024 02:00";94
"25.03.2024 02:15";94
"25.03.2024 02:30";94
"25.03.2024 02:45";94
"25.03.2024 03:00";94
"25.03.2024 03:15";94
"25.03.2024 03:30";94
"25.03.2024 03:45";94
"25.03.2024 04:00";94
"25.03.2024 04:15";94
"25.03.2024 04:30";94
"25.03.2024 04:45";94
"25.03.2024 05:00";94
"25.03.2024 05:15";94
"25.03.2024 05:30";94
"25.03.2024 05:45";94
"25.03.2024 06:00";94
"25.03.2024 06:15";94
"25.03.2024 06:30";94
"25.03.2024 06:45";94
"25.03.2024 07:00";94
"25.03.2024 07:15";94
"25.03.2024 07:30";94
"25.03.2024 07:45";94
"25.03.2024 08:00";94
"25.03.2024 08:15";94
"25.03.2024 08:30";94
"25.03.2024 08:45";94
"25.03.2024 09:00";94
"25.03.2024 09:15";94
"25.03.2024 09:30";94
"25.03.2024 09:45";94
"25.03.2024 10:00";94
"25.03.2024 10:15";94
"25.03.2024 10:30";94
"25.03.2024 10:45";94
"25.03.2024 11:00";94
"25.03.2024 11:15";94
"25.03.2024 11:30";94
"25.03.2024 11:45";94
"25.03.2024 12:00";95
"25.03.2024 12:15";95
"25.03.2024 12:30";95
"25.03.2024 12:45";95
"25.03.2024 13:00";95
"25.03.2024 13:15";94
"25.03.2024 13:30";94
"25.03.2024 13:45";94
"25.03.2024 14:00";94
"25.03.2024 14:15";94
"25.03.2024 14:30";94
"25.03.2024 14:45";94
"25.03.2024 15:00";94
"25.03.2024 15:15";94
"25.03.2024 15:30";94
"25.03.2024 15:45";94
"25.03.2024 16:00";94
"25.03.2024 16:15";94
"25.03.2024 16:30";94
"25.03.2024 16:45";94
"25.03.2024 17:00";94
"25.03.2024 17:15";94
"25.03.2024 17:30";94
"25.03.2024 17:45";94
"25.03.2024 18:00";94
"25.03.2024 18:15";94
"25.03.2024 18:30";94
"25.03.2024 18:45";94
"25.03.2024 19:00";94
"25.03.2024 19:15";94
"25.03.2024 19:30";94
"25.03.2024 19:45";94
"25.03.2024 20:00";94
"25.03.2024 20:15";94
"25.03.2024 20:30";94
"25.03.2024 20:45";94
"25.03.2024 21:00";94
"25.03.2024 21:15";94
"25.03.2024 21:30";94
"25.03.2024 21:45";94
"25.03.2024 22:00";94
"25.03.2024 22:15";94
"25.03.2024 22:30";94
"25.03.2024 22:45";94
"25.03.2024 23:00";94
"25.03.2024 23:15";94
"25.03.2024 23:30";94
"25.03.2024 23:45";94
"26.03.2024 00:00";93
"26.03.2024 00:15";93
"26.03.2024 00:30";93
"26.03.2024 00:45";93
"26.03.2024 01:00";93
"26.03.2024 01:15";93
"26.03.2024 01:30";93
"26.03.2024 01:45";93
"26.03.2024 02:00";93
"26.03.2024 02:15";94
"26.03.2024 02:30";94
"26.03.2024 02:45";93
"26.03.2024 03:00";93
"26.03.2024 03:15";93
"26.03.2024 03:30";93
"26.03.2024 03:45";93
"26.03.2024 04:00";93
"26.03.2024 04:15";93
"26.03.2024 04:30";93
"26.03.2024 04:45";93
"26.03.2024 05:00";93
"26.03.2024 05:15";93
"26.03.2024 05:30";93
"26.03.2024 05:45";93
"26.03.2024 06:00";93
"26.03.2024 06:15";93
"26.03.2024 06:30";93
"26.03.2024 06:45";93
"26.03.2024 07:00";93
"26.03.2024 07:15";93
"26.03.2024 07:30";93
"26.03.2024 07:45";93
"26.03.2024 08:00";93
"26.03.2024 08:15";93
"26.03.2024 08:30";93
"26.03.2024 08:45";93
"26.03.2024 09:00";93
"26.03.2024 09:15";93
"26.03.2024 09:30";93
"26.03.2024 09:45";93
"26.03.2024 10:00";93
"26.03.2024 10:15";93
"26.03.2024 10:30";93
"26.03.2024 10:45";93
"26.03.2024 11:00";93
"26.03.2024 11:15";93
"26.03.2024 11:30";93
"26.03.2024 11:45";93
"26.03.2024 12:00";93
"26.03.2024 12:15";93
"26.03.2024 12:30";93
"26.03.2024 12:45";93
"26.03.2024 13:00";93
"26.03.2024 13:15";93
"26.03.2024 13:30";93
"26.03.2024 13:45";93
"26.03.2024 14:00";93
"26.03.2024 14:15";93
"26.03.2024 14:30";93
"26.03.2024 14:45";93
"26.03.2024 15:00";93
"26.03.2024 15:15";93
"26.03.2024 15:30";93
"26.03.2024 15:45";93
"26.03.2024 16:00";93
"26.03.2024 16:15";93
"26.03.2024 16:30";93
"26.03.2024 16:45";93
"26.03.2024 17:00";93
"26.03.2024 17:15";93
"26.03.2024 17:30";93
"26.03.2024 17:45";93
"26.03.2024 18:00";93
"26.03.2024 18:15";93
"26.03.2024 18:30";93
"26.03.2024 18:45";93
"26.03.2024 19:00";93
"26.03.2024 19:15";93
"26.03.2024 19:30";93
"26.03.2024 19:45";93
"26.03.2024 20:00";93
"26.03.2024 20:15";93
"26.03.2024 20:30";93
"26.03.2024 20:45";93
"26.03.2024 21:00";93
"26.03.2024 21:15";93
"26.03.2024 21:30";93
"26.03.2024 21:45";93
"26.03.2024 22:00";93
"26.03.2024 22:15";93
"26.03.2024 22:30";93
"26.03.2024 22:45";93
"26.03.2024 23:00";93
"26.03.2024 23:15";93
"26.03.2024 23:30";93
"26.03.2024 23:45";93
"27.03.2024 00:00";93
"27.03.2024 00:15";93
"27.03.2024 00:30";93
"27.03.2024 00:45";93
"27.03.2024 01:00";93
"27.03.2024 01:15";93
"27.03.2024 01:30";93
"27.03.2024 01:45";93
"27.03.2024 02:00";94
"27.03.2024 02:15";93
"27.03.2024 02:30";93
"27.03.2024 02:45";94
"27.03.2024 03:00";93
"27.03.2024 03:15";93
"27.03.2024 03:30";94
"27.03.2024 03:45";93
"27.03.2024 04:00";93
"27.03.2024 04:15";93
"27.03.2024 04:30";94
"27.03.2024 04:45";93
"27.03.2024 05:00";93
"27.03.2024 05:15";94
"27.03.2024 05:30";93
"27.03.2024 05:45";94
"27.03.2024 06:00";94
"27.03.2024 06:15";94
"27.03.2024 06:30";94
"27.03.2024 06:45";94
"27.03.2024 07:00";94
"27.03.2024 07:15";94
"27.03.2024 07:30";94
"27.03.2024 07:45";94
"27.03.2024 08:00";94
"27.03.2024 08:15";94
"27.03.2024 08:30";94
"27.03.2024 08:45";93
"27.03.2024 09:00";94
"27.03.2024 09:15";94
"27.03.2024 09:30";94
"27.03.2024 09:45";94
"27.03.2024 10:00";93
"27.03.2024 10:15";94
"27.03.2024 10:30";94
"27.03.2024 10:45";94
"27.03.2024 11:00";94
"27.03.2024 11:15";94
"27.03.2024 11:30";94
"27.03.2024 11:45";93
"27.03.2024 12:00";94
"27.03.2024 12:15";94
"27.03.2024 12:30";93
"27.03.2024 12:45";94
"27.03.2024 13:00";93
"27.03.2024 13:15";93
"27.03.2024 13:30";93
"27.03.2024 13:45";94
"27.03.2024 14:00";94
"27.03.2024 14:15";93
"27.03.2024 14:30";93
"27.03.2024 14:45";93
"27.03.2024 15:00";93
"27.03.2024 15:15";94
"27.03.2024 15:30";93
"27.03.2024 15:45";93
"27.03.2024 16:00";93
"27.03.2024 16:15";93
"27.03.2024 16:30";93
"27.03.2024 16:45";94
"27.03.2024 17:00";93
"27.03.2024 17:15";93
"27.03.2024 17:30";93
"27.03.2024 17:45";93
"27.03.2024 18:00";93
"27.03.2024 18:15";93
"27.03.2024 18:30";93
"27.03.2024 18:45";93
"27.03.2024 19:00";93
"27.03.2024 19:15";93
"27.03.2024 19:30";93
"27.03.2024 19:45";94
"27.03.2024 20:00";94
"27.03.2024 20:15";94
"27.03.2024 20:30";94
"27.03.2024 20:45";93
"27.03.2024 21:00";94
"27.03.2024 21:15";94
"27.03.2024 21:30";93
"27.03.2024 21:45";93
"27.03.2024 22:00";93
"27.03.2024 22:15";93
"27.03.2024 22:30";93
"27.03.2024 22:45";93
"27.03.2024 23:00";93
"27.03.2024 23:15";93
"27.03.2024 23:30";93
"27.03.2024 23:45";93
"28.03.2024 00:00";93
"28.03.2024 00:15";93
"28.03.2024 00:30";93
"28.03.2024 00:45";93
"28.03.2024 01:00";93
"28.03.2024 01:15";94
"28.03.2024 01:30";93
"28.03.2024 01:45";93
"28.03.2024 02:00";93
"28.03.2024 02:15";93
"28.03.2024 02:30";93
"28.03.2024 02:45";93
"28.03.2024 03:00";93
"28.03.2024 03:15";94
"28.03.2024 03:30";93
"28.03.2024 03:45";93
"28.03.2024 04:00";93
"28.03.2024 04:15";93
"28.03.2024 04:30";93
"28.03.2024 04:45";93
"28.03.2024 05:00";93
"28.03.2024 05:15";93
"28.03.2024 05:30";93
"28.03.2024 05:45";93
"28.03.2024 06:00";93
"28.03.2024 06:15";93
"28.03.2024 06:30";93
"28.03.2024 06:45";93
"28.03.2024 07:00";93
"28.03.2024 07:15";93
"28.03.2024 07:30";93
"28.03.2024 07:45";93
"28.03.2024 08:00";93
"28.03.2024 08:15";93
"28.03.2024 08:30";93
"28.03.2024 08:45";93
"28.03.2024 09:00";93
"28.03.2024 09:15";93
"28.03.2024 09:30";93
"28.03.2024 09:45";93
"28.03.2024 10:00";93
"28.03.2024 10:15";93
"28.03.2024 10:30";93
"28.03.2024 10:45";93
"28.03.2024 11:00";93
"28.03.2024 11:15";93
"28.03.2024 11:30";93
"28.03.2024 11:45";93
"28.03.2024 12:00";93
"28.03.2024 12:15";93
"28.03.2024 12:30";93
"28.03.2024 12:45";93
"28.03.2024 13:00";93
"28.03.2024 13:15";93
"28.03.2024 13:30";93
"28.03.2024 13:45";93
"28.03.2024 14:00";93
"28.03.2024 14:15";93
"28.03.2024 14:30";93
"28.03.2024 14:45";93
"28.03.2024 15:00";93
"28.03.2024 15:15";93
"28.03.2024 15:30";93
"28.03.2024 15:45";93
"28.03.2024 16:00";93
"28.03.2024 16:15";93
"28.03.2024 16:30";93
"28.03.2024 16:45";93
"28.03.2024 17:00";93
"28.03.2024 17:15";93
"28.03.2024 17:30";93
"28.03.2024 17:45";93
"28.03.2024 18:00";93
"28.03.2024 18:15";93
"28.03.2024 18:30";93
"28.03.2024 18:45";93
"28.03.2024 19:00";93
"28.03.2024 19:15";93
"28.03.2024 19:30";93
"28.03.2024 19:45";93
"28.03.2024 20:00";93
"28.03.2024 20:15";93
"28.03.2024 20:30";93
"28.03.2024 20:45";93
"28.03.2024 21:00";93
"28.03.2024 21:15";93
"28.03.2024 21:30";93
"28.03.2024 21:45";93
"28.03.2024 22:00";93
"28.03.2024 22:15";93
"28.03.2024 22:30";93
"28.03.2024 22:45";93
"28.03.2024 23:00";93
"28.03.2024 23:15";93
"28.03.2024 23:30";93
"28.03.2024 23:45";93
"29.03.2024 00:00";93
"29.03.2024 00:15";93
"29.03.2024 00:30";93
"29.03.2024 00:45";93
"29.03.2024 01:00";93
"29.03.2024 01:15";93
"29.03.2024 01:30";93
"29.03.2024 01:45";93
"29.03.2024 02:00";93
"29.03.2024 02:15";93
"29.03.2024 02:30";93
"29.03.2024 02:45";93
"29.03.2024 03:00";93
"29.03.2024 03:15";93
"29.03.2024 03:30";93
"29.03.2024 03:45";93
"29.03.2024 04:00";93
"29.03.2024 04:15";93
"29.03.2024 04:30";93
"29.03.2024 04:45";93
"29.03.2024 05:00";93
"29.03.2024 05:15";93
"29.03.2024 05:30";93
"29.03.2024 05:45";93
"29.03.2024 06:00";93
"29.03.2024 06:15";93
"29.03.2024 06:30";93
"29.03.2024 06:45";93
"29.03.2024 07:00";93
"29.03.2024 07:15";93
"29.03.2024 07:30";93
"29.03.2024 07:45";93
"29.03.2024 08:00";93
"29.03.2024 08:15";93
"29.03.2024 08:30";93
"29.03.2024 08:45";93
"29.03.2024 09:00";93
"29.03.2024 09:15";93
"29.03.2024 09:30";93
"29.03.2024 09:45";93
"29.03.2024 10:00";93
"29.03.2024 10:15";93
"29.03.2024 10:30";93
"29.03.2024 10:45";93
"29.03.2024 11:00";93
"29.03.2024 11:15";93
"29.03.2024 11:30";93
"29.03.2024 11:45";93
"29.03.2024 12:00";93
"29.03.2024 12:15";93
"29.03.2024 12:30";93
"29.03.2024 12:45";93
"29.03.2024 13:00";93
"29.03.2024 13:15";93
"29.03.2024 13:30";93
"29.03.2024 13:45";93
"29.03.2024 14:00";93
"29.03.2024 14:15";93
"29.03.2024 14:30";93
"29.03.2024 14:45";93
"29.03.2024 15:00";93
"29.03.2024 15:15";94
"29.03.2024 15:30";93
"29.03.2024 15:45";93
"29.03.2024 16:00";93
"29.03.2024 16:15";93
"29.03.2024 16:30";93
"29.03.2024 16:45";93
"29.03.2024 17:00";93
"29.03.2024 17:15";93
"29.03.2024 17:30";93
"29.03.2024 17:45";93
"29.03.2024 18:00";93
"29.03.2024 18:15";92
"29.03.2024 18:30";92
"29.03.2024 18:45";92
"29.03.2024 19:00";92
"29.03.2024 19:15";93
"29.03.2024 19:30";92
"29.03.2024 19:45";92
"29.03.2024 20:00";92
"29.03.2024 20:15";92
"29.03.2024 20:30";92
"29.03.2024 20:45";93
"29.03.2024 21:00";92
"29.03.2024 21:15";92
"29.03.2024 21:30";92
"29.03.2024 21:45";92
"29.03.2024 22:00";92
"29.03.2024 22:15";93
"29.03.2024 22:30";93
"29.03.2024 22:45";93
"29.03.2024 23:00";93
"29.03.2024 23:15";93
"29.03.2024 23:30";93
"29.03.2024 23:45";93
"30.03.2024 00:00";93
"30.03.2024 00:15";93
"30.03.2024 00:30";93
"30.03.2024 00:45";93
"30.03.2024 01:00";93
"30.03.2024 01:15";93
"30.03.2024 01:30";93
"30.03.2024 01:45";93
"30.03.2024 02:00";93
"30.03.2024 02:15";93
"30.03.2024 02:30";93
"30.03.2024 02:45";93
"30.03.2024 03:00";93
"30.03.2024 03:15";93
"30.03.2024 03:30";93
"30.03.2024 03:45";93
"30.03.2024 04:00";93
"30.03.2024 04:15";93
"30.03.2024 04:30";93
"30.03.2024 04:45";93
"30.03.2024 05:00";93
"30.03.2024 05:15";93
"30.03.2024 05:30";93
"30.03.2024 05:45";93
"30.03.2024 06:00";93
"30.03.2024 06:15";93
"30.03.2024 06:30";93
"30.03.2024 06:45";93
"30.03.2024 07:00";93
"30.03.2024 07:15";93
"30.03.2024 07:30";93
"30.03.2024 07:45";93
"30.03.2024 08:00";93
"30.03.2024 08:15";93
"30.03.2024 08:30";93
"30.03.2024 08:45";93
"30.03.2024 09:00";93
"30.03.2024 09:15";93
"30.03.2024 09:30";93
"30.03.2024 09:45";93
"30.03.2024 10:00";93
"30.03.2024 10:15";93
"30.03.2024 10:30";93
"30.03.2024 10:45";93
"30.03.2024 11:00";93
"30.03.2024 11:15";93
"30.03.2024 11:30";93
"30.03.2024 11:45";93
"30.03.2024 12:00";93
"30.03.2024 12:15";93
"30.03.2024 12:30";93
"30.03.2024 12:45";93
"30.03.2024 13:00";93
"30.03.2024 13:15";93
"30.03.2024 13:30";93
"30.03.2024 13:45";93
"30.03.2024 14:00";93
"30.03.2024 14:15";93
"30.03.2024 14:30";93
"30.03.2024 14:45";93
"30.03.2024 15:00";93
"30.03.2024 15:15";93
"30.03.2024 15:30";93
"30.03.2024 15:45";93
"30.03.2024 16:00";93
"30.03.2024 16:15";93
"30.03.2024 16:30";93
"30.03.2024 16:45";93
"30.03.2024 17:00";93
"30.03.2024 17:15";93
"30.03.2024 17:30";93
"30.03.2024 17:45";93
"30.03.2024 18:00";93
"30.03.2024 18:15";93
"30.03.2024 18:30";93
"30.03.2024 18:45";93
"30.03.2024 19:00";92
"30.03.2024 19:15";93
"30.03.2024 19:30";93
"30.03.2024 19:45";92
"30.03.2024 20:00";93
"30.03.2024 20:15";92
"30.03.2024 20:30";93
"30.03.2024 20:45";92
"30.03.2024 21:00";92
"30.03.2024 21:15";92
"30.03.2024 21:30";92
"30.03.2024 21:45";92
"30.03.2024 22:00";92
"30.03.2024 22:15";92
"30.03.2024 22:30";92
"30.03.2024 22:45";92
"30.03.2024 23:00";92
"30.03.2024 23:15";92
"30.03.2024 23:30";92
"30.03.2024 23:45";92
"31.03.2024 00:00";92
"31.03.2024 00:15";92
"31.03.2024 00:30";92
"31.03.2024 00:45";92
"31.03.2024 01:00";92
"31.03.2024 01:15";92
"31.03.2024 01:30";92
"31.03.2024 01:45";92
"31.03.2024 02:00";92
"31.03.2024 02:15";92
"31.03.2024 02:30";92
"31.03.2024 02:45";92
"31.03.2024 03:00";92
"31.03.2024 03:15";92
"31.03.2024 03:30";92
"31.03.2024 03:45";92
"31.03.2024 04:00";92
"31.03.2024 04:15";92
"31.03.2024 04:30";92
"31.03.2024 04:45";92
"31.03.2024 05:00";92
"31.03.2024 05:15";92
"31.03.2024 05:30";91
"31.03.2024 05:45";91
"31.03.2024 06:00";91
"31.03.2024 06:15";91
"31.03.2024 06:30";91
"31.03.2024 06:45";91
"31.03.2024 07:00";91